Year,Month,Day,Hour,Minute,Value (Times are PST for temperature in C)
2019,03,28,00,00,5.80
2019,03,28,00,01,5.80
2019,03,28,00,02,5.80
2019,03,28,00,03,5.80
2019,03,28,00,04,5.70
2019,03,28,00,05,5.70
2019,03,28,00,06,5.70
2019,03,28,00,07,5.60
2019,03,28,00,08,5.60
2019,03,28,00,09,5.60
2019,03,28,00,10,5.60
2019,03,28,00,11,5.50
2019,03,28,00,12,5.50
2019,03,28,00,13,5.50
2019,03,28,00,14,5.50
2019,03,28,00,15,5.40
2019,03,28,00,16,5.40
2019,03,28,00,17,5.40
2019,03,28,00,18,5.40
2019,03,28,00,19,5.40
2019,03,28,00,20,5.40
2019,03,28,00,21,5.40
2019,03,28,00,22,5.40
2019,03,28,00,23,5.40
2019,03,28,00,24,5.30
2019,03,28,00,25,5.30
2019,03,28,00,26,5.30
2019,03,28,00,27,5.30
2019,03,28,00,28,5.30
2019,03,28,00,29,5.30
2019,03,28,00,30,5.30
2019,03,28,00,31,5.30
2019,03,28,00,32,5.30
2019,03,28,00,33,5.30
2019,03,28,00,34,5.30
2019,03,28,00,35,5.30
2019,03,28,00,36,5.30
2019,03,28,00,37,5.30
2019,03,28,00,38,5.30
2019,03,28,00,39,5.30
2019,03,28,00,40,5.30
2019,03,28,00,41,5.30
2019,03,28,00,42,5.30
2019,03,28,00,43,5.30
2019,03,28,00,44,5.30
2019,03,28,00,45,5.30
2019,03,28,00,46,5.30
2019,03,28,00,47,5.30
2019,03,28,00,48,5.30
2019,03,28,00,49,5.30
2019,03,28,00,50,5.30
2019,03,28,00,51,5.30
2019,03,28,00,52,5.30
2019,03,28,00,53,5.30
2019,03,28,00,54,5.30
2019,03,28,00,55,5.30
2019,03,28,00,56,5.30
2019,03,28,00,57,5.40
2019,03,28,00,58,5.40
2019,03,28,00,59,5.40
2019,03,28,01,00,5.40
2019,03,28,01,01,5.40
2019,03,28,01,02,5.40
2019,03,28,01,03,5.40
2019,03,28,01,04,5.40
2019,03,28,01,05,5.40
2019,03,28,01,06,5.40
2019,03,28,01,07,5.40
2019,03,28,01,08,5.40
2019,03,28,01,09,5.40
2019,03,28,01,10,5.50
2019,03,28,01,11,5.50
2019,03,28,01,12,5.50
2019,03,28,01,13,5.50
2019,03,28,01,14,5.60
2019,03,28,01,15,5.60
2019,03,28,01,16,5.60
2019,03,28,01,17,5.60
2019,03,28,01,18,5.70
2019,03,28,01,19,5.70
2019,03,28,01,20,5.70
2019,03,28,01,21,5.70
2019,03,28,01,22,5.70
2019,03,28,01,23,5.70
2019,03,28,01,24,5.60
2019,03,28,01,25,5.60
2019,03,28,01,26,5.60
2019,03,28,01,27,5.60
2019,03,28,01,28,5.60
2019,03,28,01,29,5.60
2019,03,28,01,30,5.60
2019,03,28,01,31,5.60
2019,03,28,01,32,5.60
2019,03,28,01,33,5.60
2019,03,28,01,34,5.60
2019,03,28,01,35,5.60
2019,03,28,01,36,5.60
2019,03,28,01,37,5.60
2019,03,28,01,38,5.60
2019,03,28,01,39,5.60
2019,03,28,01,40,5.60
2019,03,28,01,41,5.60
2019,03,28,01,42,5.60
2019,03,28,01,43,5.60
2019,03,28,01,44,5.60
2019,03,28,01,45,5.60
2019,03,28,01,46,5.60
2019,03,28,01,47,5.60
2019,03,28,01,48,5.60
2019,03,28,01,49,5.60
2019,03,28,01,50,5.60
2019,03,28,01,51,5.60
2019,03,28,01,52,5.60
2019,03,28,01,53,5.60
2019,03,28,01,54,5.50
2019,03,28,01,55,5.50
2019,03,28,01,56,5.50
2019,03,28,01,57,5.50
2019,03,28,01,58,5.50
2019,03,28,01,59,5.60
2019,03,28,02,00,5.60
2019,03,28,02,01,5.60
2019,03,28,02,02,5.60
2019,03,28,02,03,5.70
2019,03,28,02,04,5.70
2019,03,28,02,05,5.70
2019,03,28,02,06,5.70
2019,03,28,02,07,5.70
2019,03,28,02,08,5.70
2019,03,28,02,09,5.70
2019,03,28,02,10,5.70
2019,03,28,02,11,5.70
2019,03,28,02,12,5.70
2019,03,28,02,13,5.70
2019,03,28,02,14,5.70
2019,03,28,02,15,5.70
2019,03,28,02,16,5.70
2019,03,28,02,17,5.70
2019,03,28,02,18,5.70
2019,03,28,02,19,5.70
2019,03,28,02,20,5.70
2019,03,28,02,21,5.70
2019,03,28,02,22,5.80
2019,03,28,02,23,5.80
2019,03,28,02,24,5.80
2019,03,28,02,25,5.80
2019,03,28,02,26,5.80
2019,03,28,02,27,5.80
2019,03,28,02,28,5.80
2019,03,28,02,29,5.80
2019,03,28,02,30,5.80
2019,03,28,02,31,5.80
2019,03,28,02,32,5.80
2019,03,28,02,33,5.80
2019,03,28,02,34,5.80
2019,03,28,02,35,5.80
2019,03,28,02,36,5.80
2019,03,28,02,37,5.80
2019,03,28,02,38,5.80
2019,03,28,02,39,5.80
2019,03,28,02,40,5.80
2019,03,28,02,41,5.90
2019,03,28,02,42,5.90
2019,03,28,02,43,5.90
2019,03,28,02,44,5.90
2019,03,28,02,45,5.90
2019,03,28,02,46,5.90
2019,03,28,02,47,5.90
2019,03,28,02,48,5.90
2019,03,28,02,49,6.00
2019,03,28,02,50,6.00
2019,03,28,02,51,6.00
2019,03,28,02,52,6.00
2019,03,28,02,53,6.00
2019,03,28,02,54,6.00
2019,03,28,02,55,6.00
2019,03,28,02,56,6.00
2019,03,28,02,57,6.10
2019,03,28,02,58,6.10
2019,03,28,02,59,6.10
2019,03,28,03,00,6.10
2019,03,28,03,01,6.10
2019,03,28,03,02,6.20
2019,03,28,03,03,6.20
2019,03,28,03,04,6.30
2019,03,28,03,05,6.30
2019,03,28,03,06,6.40
2019,03,28,03,07,6.40
2019,03,28,03,08,6.50
2019,03,28,03,09,6.50
2019,03,28,03,10,6.60
2019,03,28,03,11,6.60
2019,03,28,03,12,6.60
2019,03,28,03,13,6.60
2019,03,28,03,14,6.60
2019,03,28,03,15,6.60
2019,03,28,03,16,6.60
2019,03,28,03,17,6.50
2019,03,28,03,18,6.50
2019,03,28,03,19,6.50
2019,03,28,03,20,6.50
2019,03,28,03,21,6.50
2019,03,28,03,22,6.50
2019,03,28,03,23,6.50
2019,03,28,03,24,6.40
2019,03,28,03,25,6.40
2019,03,28,03,26,6.50
2019,03,28,03,27,6.50
2019,03,28,03,28,6.50
2019,03,28,03,29,6.60
2019,03,28,03,30,6.60
2019,03,28,03,31,6.60
2019,03,28,03,32,6.60
2019,03,28,03,33,6.60
2019,03,28,03,34,6.60
2019,03,28,03,35,6.60
2019,03,28,03,36,6.50
2019,03,28,03,37,6.50
2019,03,28,03,38,6.50
2019,03,28,03,39,6.50
2019,03,28,03,40,6.50
2019,03,28,03,41,6.50
2019,03,28,03,42,6.50
2019,03,28,03,43,6.50
2019,03,28,03,44,6.50
2019,03,28,03,45,6.50
2019,03,28,03,46,6.50
2019,03,28,03,47,6.50
2019,03,28,03,48,6.50
2019,03,28,03,49,6.50
2019,03,28,03,50,6.50
2019,03,28,03,51,6.50
2019,03,28,03,52,6.50
2019,03,28,03,53,6.60
2019,03,28,03,54,6.60
2019,03,28,03,55,6.60
2019,03,28,03,56,6.60
2019,03,28,03,57,6.60
2019,03,28,03,58,6.60
2019,03,28,03,59,6.60
2019,03,28,04,00,6.60
2019,03,28,04,01,6.50
2019,03,28,04,02,6.50
2019,03,28,04,03,6.50
2019,03,28,04,04,6.50
2019,03,28,04,05,6.50
2019,03,28,04,06,6.50
2019,03,28,04,07,6.50
2019,03,28,04,08,6.50
2019,03,28,04,09,6.50
2019,03,28,04,10,6.50
2019,03,28,04,11,6.60
2019,03,28,04,12,6.60
2019,03,28,04,13,6.60
2019,03,28,04,14,6.60
2019,03,28,04,15,6.60
2019,03,28,04,16,6.60
2019,03,28,04,17,6.60
2019,03,28,04,18,6.60
2019,03,28,04,19,6.60
2019,03,28,04,20,6.60
2019,03,28,04,21,6.60
2019,03,28,04,22,6.60
2019,03,28,04,23,6.60
2019,03,28,04,24,6.60
2019,03,28,04,25,6.50
2019,03,28,04,26,6.50
2019,03,28,04,27,6.50
2019,03,28,04,28,6.50
2019,03,28,04,29,6.50
2019,03,28,04,30,6.50
2019,03,28,04,31,6.60
2019,03,28,04,32,6.60
2019,03,28,04,33,6.60
2019,03,28,04,34,6.60
2019,03,28,04,35,6.60
2019,03,28,04,36,6.70
2019,03,28,04,37,6.70
2019,03,28,04,38,6.70
2019,03,28,04,39,6.70
2019,03,28,04,40,6.70
2019,03,28,04,41,6.70
2019,03,28,04,42,6.70
2019,03,28,04,43,6.70
2019,03,28,04,44,6.70
2019,03,28,04,45,6.70
2019,03,28,04,46,6.70
2019,03,28,04,47,6.70
2019,03,28,04,48,6.70
2019,03,28,04,49,6.70
2019,03,28,04,50,6.70
2019,03,28,04,51,6.70
2019,03,28,04,52,6.70
2019,03,28,04,53,6.70
2019,03,28,04,54,6.70
2019,03,28,04,55,6.60
2019,03,28,04,56,6.60
2019,03,28,04,57,6.60
2019,03,28,04,58,6.70
2019,03,28,04,59,6.60
2019,03,28,05,00,6.70
2019,03,28,05,01,6.70
2019,03,28,05,02,6.70
2019,03,28,05,03,6.70
2019,03,28,05,04,6.80
2019,03,28,05,05,6.80
2019,03,28,05,06,6.80
2019,03,28,05,07,6.90
2019,03,28,05,08,6.90
2019,03,28,05,09,7.00
2019,03,28,05,10,7.00
2019,03,28,05,11,7.10
2019,03,28,05,12,7.10
2019,03,28,05,13,7.20
2019,03,28,05,14,7.20
2019,03,28,05,15,7.20
2019,03,28,05,16,7.20
2019,03,28,05,17,7.20
2019,03,28,05,18,7.20
2019,03,28,05,19,7.30
2019,03,28,05,20,7.20
2019,03,28,05,21,7.20
2019,03,28,05,22,7.20
2019,03,28,05,23,7.20
2019,03,28,05,24,7.20
2019,03,28,05,25,7.30
2019,03,28,05,26,7.30
2019,03,28,05,27,7.30
2019,03,28,05,28,7.40
2019,03,28,05,29,7.40
2019,03,28,05,30,7.40
2019,03,28,05,31,7.40
2019,03,28,05,32,7.40
2019,03,28,05,33,7.50
2019,03,28,05,34,7.50
2019,03,28,05,35,7.40
2019,03,28,05,36,7.40
2019,03,28,05,37,7.40
2019,03,28,05,38,7.40
2019,03,28,05,39,7.40
2019,03,28,05,40,7.40
2019,03,28,05,41,7.30
2019,03,28,05,42,7.30
2019,03,28,05,43,7.30
2019,03,28,05,44,7.30
2019,03,28,05,45,7.30
2019,03,28,05,46,7.30
2019,03,28,05,47,7.30
2019,03,28,05,48,7.30
2019,03,28,05,49,7.30
2019,03,28,05,50,7.30
2019,03,28,05,51,7.30
2019,03,28,05,52,7.20
2019,03,28,05,53,7.20
2019,03,28,05,54,7.20
2019,03,28,05,55,7.30
2019,03,28,05,56,7.20
2019,03,28,05,57,7.20
2019,03,28,05,58,7.20
2019,03,28,05,59,7.20
2019,03,28,06,00,7.20
2019,03,28,06,01,7.20
2019,03,28,06,02,7.20
2019,03,28,06,03,7.20
2019,03,28,06,04,7.10
2019,03,28,06,05,7.10
2019,03,28,06,06,7.10
2019,03,28,06,07,7.10
2019,03,28,06,08,7.10
2019,03,28,06,09,7.10
2019,03,28,06,10,7.00
2019,03,28,06,11,7.00
2019,03,28,06,12,7.00
2019,03,28,06,13,7.00
2019,03,28,06,14,7.00
2019,03,28,06,15,7.00
2019,03,28,06,16,7.00
2019,03,28,06,17,7.00
2019,03,28,06,18,6.90
2019,03,28,06,19,6.90
2019,03,28,06,20,6.90
2019,03,28,06,21,6.80
2019,03,28,06,22,6.80
2019,03,28,06,23,6.80
2019,03,28,06,24,6.80
2019,03,28,06,25,6.80
2019,03,28,06,26,6.80
2019,03,28,06,27,6.90
2019,03,28,06,28,6.90
2019,03,28,06,29,6.90
2019,03,28,06,30,6.90
2019,03,28,06,31,6.90
2019,03,28,06,32,6.90
2019,03,28,06,33,6.90
2019,03,28,06,34,6.90
2019,03,28,06,35,6.90
2019,03,28,06,36,6.80
2019,03,28,06,37,6.80
2019,03,28,06,38,6.70
2019,03,28,06,39,6.70
2019,03,28,06,40,6.60
2019,03,28,06,41,6.60
2019,03,28,06,42,6.60
2019,03,28,06,43,6.60
2019,03,28,06,44,6.50
2019,03,28,06,45,6.50
2019,03,28,06,46,6.50
2019,03,28,06,47,6.40
2019,03,28,06,48,6.40
2019,03,28,06,49,6.40
2019,03,28,06,50,6.30
2019,03,28,06,51,6.30
2019,03,28,06,52,6.30
2019,03,28,06,53,6.30
2019,03,28,06,54,6.30
2019,03,28,06,55,6.30
2019,03,28,06,56,6.30
2019,03,28,06,57,6.30
2019,03,28,06,58,6.30
2019,03,28,06,59,6.30
2019,03,28,07,00,6.30
2019,03,28,07,01,6.30
2019,03,28,07,02,6.30
2019,03,28,07,03,6.20
2019,03,28,07,04,6.20
2019,03,28,07,05,6.10
2019,03,28,07,06,6.10
2019,03,28,07,07,6.00
2019,03,28,07,08,6.00
2019,03,28,07,09,5.90
2019,03,28,07,10,5.90
2019,03,28,07,11,5.90
2019,03,28,07,12,5.90
2019,03,28,07,13,5.90
2019,03,28,07,14,5.90
2019,03,28,07,15,6.00
2019,03,28,07,16,6.00
2019,03,28,07,17,6.00
2019,03,28,07,18,6.00
2019,03,28,07,19,6.10
2019,03,28,07,20,6.10
2019,03,28,07,21,6.10
2019,03,28,07,22,6.10
2019,03,28,07,23,6.10
2019,03,28,07,24,6.10
2019,03,28,07,25,6.10
2019,03,28,07,26,6.10
2019,03,28,07,27,6.00
2019,03,28,07,28,5.90
2019,03,28,07,29,5.90
2019,03,28,07,30,5.90
2019,03,28,07,31,5.80
2019,03,28,07,32,5.80
2019,03,28,07,33,5.80
2019,03,28,07,34,5.80
2019,03,28,07,35,5.70
2019,03,28,07,36,5.70
2019,03,28,07,37,5.70
2019,03,28,07,38,5.70
2019,03,28,07,39,5.70
2019,03,28,07,40,5.70
2019,03,28,07,41,5.70
2019,03,28,07,42,5.70
2019,03,28,07,43,5.80
2019,03,28,07,44,5.80
2019,03,28,07,45,5.80
2019,03,28,07,46,5.90
2019,03,28,07,47,5.90
2019,03,28,07,48,5.90
2019,03,28,07,49,5.90
2019,03,28,07,50,5.90
2019,03,28,07,51,5.90
2019,03,28,07,52,5.80
2019,03,28,07,53,5.80
2019,03,28,07,54,5.80
2019,03,28,07,55,5.80
2019,03,28,07,56,5.80
2019,03,28,07,57,5.80
2019,03,28,07,58,5.80
2019,03,28,07,59,5.80
2019,03,28,08,00,5.80
2019,03,28,08,01,5.90
2019,03,28,08,02,5.90
2019,03,28,08,03,5.90
2019,03,28,08,04,5.90
2019,03,28,08,05,5.90
2019,03,28,08,06,5.90
2019,03,28,08,07,5.90
2019,03,28,08,08,5.90
2019,03,28,08,09,5.90
2019,03,28,08,10,5.90
2019,03,28,08,11,5.90
2019,03,28,08,12,5.90
2019,03,28,08,13,6.00
2019,03,28,08,14,6.00
2019,03,28,08,15,6.00
2019,03,28,08,16,6.00
2019,03,28,08,17,6.00
2019,03,28,08,18,6.10
2019,03,28,08,19,6.10
2019,03,28,08,20,6.10
2019,03,28,08,21,6.10
2019,03,28,08,22,6.10
2019,03,28,08,23,6.10
2019,03,28,08,24,6.20
2019,03,28,08,25,6.20
2019,03,28,08,26,6.20
2019,03,28,08,27,6.20
2019,03,28,08,28,6.30
2019,03,28,08,29,6.30
2019,03,28,08,30,6.40
2019,03,28,08,31,6.40
2019,03,28,08,32,6.50
2019,03,28,08,33,6.60
2019,03,28,08,34,6.70
2019,03,28,08,35,6.70
2019,03,28,08,36,6.80
2019,03,28,08,37,6.90
2019,03,28,08,38,7.00
2019,03,28,08,39,7.10
2019,03,28,08,40,7.20
2019,03,28,08,41,7.20
2019,03,28,08,42,7.30
2019,03,28,08,43,7.30
2019,03,28,08,44,7.40
2019,03,28,08,45,7.40
2019,03,28,08,46,7.50
2019,03,28,08,47,7.50
2019,03,28,08,48,7.60
2019,03,28,08,49,7.60
2019,03,28,08,50,7.60
2019,03,28,08,51,7.70
2019,03,28,08,52,7.70
2019,03,28,08,53,7.70
2019,03,28,08,54,7.70
2019,03,28,08,55,7.80
2019,03,28,08,56,7.80
2019,03,28,08,57,7.80
2019,03,28,08,58,7.80
2019,03,28,08,59,7.90
2019,03,28,09,00,7.90
2019,03,28,09,01,8.00
2019,03,28,09,02,8.00
2019,03,28,09,03,8.10
2019,03,28,09,04,8.10
2019,03,28,09,05,8.10
2019,03,28,09,06,8.20
2019,03,28,09,07,8.20
2019,03,28,09,08,8.30
2019,03,28,09,09,8.30
2019,03,28,09,10,8.30
2019,03,28,09,11,8.40
2019,03,28,09,12,8.40
2019,03,28,09,13,8.50
2019,03,28,09,14,8.50
2019,03,28,09,15,8.60
2019,03,28,09,16,8.60
2019,03,28,09,17,8.60
2019,03,28,09,18,8.70
2019,03,28,09,19,8.70
2019,03,28,09,20,8.70
2019,03,28,09,21,8.80
2019,03,28,09,22,8.80
2019,03,28,09,23,8.80
2019,03,28,09,24,8.90
2019,03,28,09,25,8.90
2019,03,28,09,26,9.00
2019,03,28,09,27,9.00
2019,03,28,09,28,9.10
2019,03,28,09,29,9.10
2019,03,28,09,30,9.20
2019,03,28,09,31,9.20
2019,03,28,09,32,9.30
2019,03,28,09,33,9.30
2019,03,28,09,34,9.40
2019,03,28,09,35,9.50
2019,03,28,09,36,9.60
2019,03,28,09,37,9.70
2019,03,28,09,38,9.80
2019,03,28,09,39,9.80
2019,03,28,09,40,9.90
2019,03,28,09,41,10.00
2019,03,28,09,42,10.10
2019,03,28,09,43,10.20
2019,03,28,09,44,10.30
2019,03,28,09,45,10.40
2019,03,28,09,46,10.40
2019,03,28,09,47,10.50
2019,03,28,09,48,10.60
2019,03,28,09,49,10.70
2019,03,28,09,50,10.80
2019,03,28,09,51,10.80
2019,03,28,09,52,10.90
2019,03,28,09,53,11.00
2019,03,28,09,54,11.10
2019,03,28,09,55,11.10
2019,03,28,09,56,11.20
2019,03,28,09,57,11.30
2019,03,28,09,58,11.30
2019,03,28,09,59,11.30
2019,03,28,10,00,11.30
2019,03,28,10,01,11.40
2019,03,28,10,02,11.40
2019,03,28,10,03,11.40
2019,03,28,10,04,11.50
2019,03,28,10,05,11.50
2019,03,28,10,06,11.60
2019,03,28,10,07,11.60
2019,03,28,10,08,11.60
2019,03,28,10,09,11.60
2019,03,28,10,10,11.60
2019,03,28,10,11,11.60
2019,03,28,10,12,11.60
2019,03,28,10,13,11.60
2019,03,28,10,14,11.60
2019,03,28,10,15,11.50
2019,03,28,10,16,11.50
2019,03,28,10,17,11.50
2019,03,28,10,18,11.50
2019,03,28,10,19,11.40
2019,03,28,10,20,11.40
2019,03,28,10,21,11.30
2019,03,28,10,22,11.30
2019,03,28,10,23,11.30
2019,03,28,10,24,11.30
2019,03,28,10,25,11.40
2019,03,28,10,26,11.40
2019,03,28,10,27,11.40
2019,03,28,10,28,11.40
2019,03,28,10,29,11.40
2019,03,28,10,30,11.40
2019,03,28,10,31,11.40
2019,03,28,10,32,11.50
2019,03,28,10,33,11.60
2019,03,28,10,34,11.60
2019,03,28,10,35,11.70
2019,03,28,10,36,11.70
2019,03,28,10,37,11.70
2019,03,28,10,38,11.70
2019,03,28,10,39,11.80
2019,03,28,10,40,11.80
2019,03,28,10,41,11.80
2019,03,28,10,42,11.80
2019,03,28,10,43,11.90
2019,03,28,10,44,12.00
2019,03,28,10,45,12.00
2019,03,28,10,46,12.10
2019,03,28,10,47,12.10
2019,03,28,10,48,12.10
2019,03,28,10,49,12.10
2019,03,28,10,50,12.20
2019,03,28,10,51,12.20
2019,03,28,10,52,12.20
2019,03,28,10,53,12.20
2019,03,28,10,54,12.30
2019,03,28,10,55,12.30
2019,03,28,10,56,12.30
2019,03,28,10,57,12.30
2019,03,28,10,58,12.30
2019,03,28,10,59,12.30
2019,03,28,11,00,12.30
2019,03,28,11,01,12.30
2019,03,28,11,02,12.30
2019,03,28,11,03,12.30
2019,03,28,11,04,12.30
2019,03,28,11,05,12.30
2019,03,28,11,06,12.30
2019,03,28,11,07,12.40
2019,03,28,11,08,12.40
2019,03,28,11,09,12.40
2019,03,28,11,10,12.40
2019,03,28,11,11,12.40
2019,03,28,11,12,12.50
2019,03,28,11,13,12.60
2019,03,28,11,14,12.70
2019,03,28,11,15,12.70
2019,03,28,11,16,12.80
2019,03,28,11,17,12.80
2019,03,28,11,18,12.80
2019,03,28,11,19,12.80
2019,03,28,11,20,12.80
2019,03,28,11,21,12.80
2019,03,28,11,22,12.70
2019,03,28,11,23,12.70
2019,03,28,11,24,12.70
2019,03,28,11,25,12.80
2019,03,28,11,26,12.80
2019,03,28,11,27,12.90
2019,03,28,11,28,12.90
2019,03,28,11,29,12.90
2019,03,28,11,30,12.90
2019,03,28,11,31,12.90
2019,03,28,11,32,12.90
2019,03,28,11,33,12.90
2019,03,28,11,34,12.90
2019,03,28,11,35,12.90
2019,03,28,11,36,12.90
2019,03,28,11,37,13.00
2019,03,28,11,38,13.00
2019,03,28,11,39,13.10
2019,03,28,11,40,13.10
2019,03,28,11,41,13.20
2019,03,28,11,42,13.20
2019,03,28,11,43,13.20
2019,03,28,11,44,13.20
2019,03,28,11,45,13.20
2019,03,28,11,46,13.30
2019,03,28,11,47,13.30
2019,03,28,11,48,13.30
2019,03,28,11,49,13.30
2019,03,28,11,50,13.30
2019,03,28,11,51,13.30
2019,03,28,11,52,13.30
2019,03,28,11,53,13.40
2019,03,28,11,54,13.40
2019,03,28,11,55,13.40
2019,03,28,11,56,13.40
2019,03,28,11,57,13.40
2019,03,28,11,58,13.40
2019,03,28,11,59,13.40
2019,03,28,12,00,13.40
2019,03,28,12,01,13.40
2019,03,28,12,02,13.40
2019,03,28,12,03,13.40
2019,03,28,12,04,13.40
2019,03,28,12,05,13.40
2019,03,28,12,06,13.50
2019,03,28,12,07,13.50
2019,03,28,12,08,13.60
2019,03,28,12,09,13.60
2019,03,28,12,10,13.60
2019,03,28,12,11,13.70
2019,03,28,12,12,13.70
2019,03,28,12,13,13.80
2019,03,28,12,14,13.90
2019,03,28,12,15,14.00
2019,03,28,12,16,14.20
2019,03,28,12,17,14.30
2019,03,28,12,18,14.40
2019,03,28,12,19,14.50
2019,03,28,12,20,14.50
2019,03,28,12,21,14.60
2019,03,28,12,22,14.60
2019,03,28,12,23,14.70
2019,03,28,12,24,14.70
2019,03,28,12,25,14.80
2019,03,28,12,26,14.90
2019,03,28,12,27,14.90
2019,03,28,12,28,15.00
2019,03,28,12,29,15.10
2019,03,28,12,30,15.00
2019,03,28,12,31,14.90
2019,03,28,12,32,14.90
2019,03,28,12,33,14.80
2019,03,28,12,34,14.80
2019,03,28,12,35,14.80
2019,03,28,12,36,14.90
2019,03,28,12,37,15.00
2019,03,28,12,38,15.00
2019,03,28,12,39,15.00
2019,03,28,12,40,15.00
2019,03,28,12,41,15.00
2019,03,28,12,42,15.00
2019,03,28,12,43,14.90
2019,03,28,12,44,15.00
2019,03,28,12,45,15.10
2019,03,28,12,46,15.10
2019,03,28,12,47,15.10
2019,03,28,12,48,15.10
2019,03,28,12,49,15.10
2019,03,28,12,50,15.00
2019,03,28,12,51,15.00
2019,03,28,12,52,15.00
2019,03,28,12,53,14.90
2019,03,28,12,54,14.90
2019,03,28,12,55,14.80
2019,03,28,12,56,14.70
2019,03,28,12,57,14.60
2019,03,28,12,58,14.50
2019,03,28,12,59,14.50
2019,03,28,13,00,14.50
2019,03,28,13,01,14.60
2019,03,28,13,02,14.60
2019,03,28,13,03,14.60
2019,03,28,13,04,14.70
2019,03,28,13,05,14.70
2019,03,28,13,06,14.80
2019,03,28,13,07,14.80
2019,03,28,13,08,14.90
2019,03,28,13,09,14.90
2019,03,28,13,10,15.00
2019,03,28,13,11,15.00
2019,03,28,13,12,15.10
2019,03,28,13,13,15.10
2019,03,28,13,14,15.10
2019,03,28,13,15,15.20
2019,03,28,13,16,15.20
2019,03,28,13,17,15.20
2019,03,28,13,18,15.30
2019,03,28,13,19,15.40
2019,03,28,13,20,15.50
2019,03,28,13,21,15.60
2019,03,28,13,22,15.60
2019,03,28,13,23,15.60
2019,03,28,13,24,15.70
2019,03,28,13,25,15.70
2019,03,28,13,26,15.80
2019,03,28,13,27,15.90
2019,03,28,13,28,15.90
2019,03,28,13,29,15.80
2019,03,28,13,30,15.70
2019,03,28,13,31,15.60
2019,03,28,13,32,15.60
2019,03,28,13,33,15.50
2019,03,28,13,34,15.40
2019,03,28,13,35,15.40
2019,03,28,13,36,15.30
2019,03,28,13,37,15.10
2019,03,28,13,38,15.00
2019,03,28,13,39,14.90
2019,03,28,13,40,14.80
2019,03,28,13,41,14.80
2019,03,28,13,42,14.80
2019,03,28,13,43,14.80
2019,03,28,13,44,14.90
2019,03,28,13,45,14.90
2019,03,28,13,46,14.90
2019,03,28,13,47,14.90
2019,03,28,13,48,14.90
2019,03,28,13,49,14.80
2019,03,28,13,50,14.80
2019,03,28,13,51,14.90
2019,03,28,13,52,14.90
2019,03,28,13,53,14.90
2019,03,28,13,54,14.90
2019,03,28,13,55,14.90
2019,03,28,13,56,14.80
2019,03,28,13,57,14.80
2019,03,28,13,58,14.80
2019,03,28,13,59,14.80
2019,03,28,14,00,14.70
2019,03,28,14,01,14.70
2019,03,28,14,02,14.70
2019,03,28,14,03,14.70
2019,03,28,14,04,14.70
2019,03,28,14,05,14.70
2019,03,28,14,06,14.70
2019,03,28,14,07,14.70
2019,03,28,14,08,14.70
2019,03,28,14,09,14.80
2019,03,28,14,10,14.80
2019,03,28,14,11,14.90
2019,03,28,14,12,15.00
2019,03,28,14,13,15.00
2019,03,28,14,14,15.00
2019,03,28,14,15,15.00
2019,03,28,14,16,14.90
2019,03,28,14,17,14.90
2019,03,28,14,18,14.80
2019,03,28,14,19,14.80
2019,03,28,14,20,14.80
2019,03,28,14,21,14.70
2019,03,28,14,22,14.80
2019,03,28,14,23,14.80
2019,03,28,14,24,14.80
2019,03,28,14,25,14.80
2019,03,28,14,26,14.80
2019,03,28,14,27,14.80
2019,03,28,14,28,14.80
2019,03,28,14,29,14.80
2019,03,28,14,30,14.90
2019,03,28,14,31,15.00
2019,03,28,14,32,15.10
2019,03,28,14,33,15.20
2019,03,28,14,34,15.30
2019,03,28,14,35,15.30
2019,03,28,14,36,15.40
2019,03,28,14,37,15.50
2019,03,28,14,38,15.60
2019,03,28,14,39,15.50
2019,03,28,14,40,15.50
2019,03,28,14,41,15.50
2019,03,28,14,42,15.60
2019,03,28,14,43,15.60
2019,03,28,14,44,15.60
2019,03,28,14,45,15.60
2019,03,28,14,46,15.70
2019,03,28,14,47,15.70
2019,03,28,14,48,15.70
2019,03,28,14,49,15.70
2019,03,28,14,50,15.60
2019,03,28,14,51,15.60
2019,03,28,14,52,15.60
2019,03,28,14,53,15.70
2019,03,28,14,54,15.70
2019,03,28,14,55,15.90
2019,03,28,14,56,16.00
2019,03,28,14,57,16.20
2019,03,28,14,58,16.30
2019,03,28,14,59,16.50
2019,03,28,15,00,16.60
2019,03,28,15,01,16.80
2019,03,28,15,02,17.00
2019,03,28,15,03,17.10
2019,03,28,15,04,17.30
2019,03,28,15,05,17.40
2019,03,28,15,06,17.50
2019,03,28,15,07,17.60
2019,03,28,15,08,17.70
2019,03,28,15,09,17.80
2019,03,28,15,10,17.90
2019,03,28,15,11,17.90
2019,03,28,15,12,18.00
2019,03,28,15,13,18.00
2019,03,28,15,14,17.90
2019,03,28,15,15,17.70
2019,03,28,15,16,17.60
2019,03,28,15,17,17.50
2019,03,28,15,18,17.30
2019,03,28,15,19,17.30
2019,03,28,15,20,17.30
2019,03,28,15,21,17.40
2019,03,28,15,22,17.50
2019,03,28,15,23,17.50
2019,03,28,15,24,17.60
2019,03,28,15,25,17.60
2019,03,28,15,26,17.60
2019,03,28,15,27,17.60
2019,03,28,15,28,17.50
2019,03,28,15,29,17.50
2019,03,28,15,30,17.40
2019,03,28,15,31,17.30
2019,03,28,15,32,17.20
2019,03,28,15,33,17.00
2019,03,28,15,34,16.90
2019,03,28,15,35,16.70
2019,03,28,15,36,16.60
2019,03,28,15,37,16.60
2019,03,28,15,38,16.50
2019,03,28,15,39,16.50
2019,03,28,15,40,16.50
2019,03,28,15,41,16.40
2019,03,28,15,42,16.40
2019,03,28,15,43,16.40
2019,03,28,15,44,16.40
2019,03,28,15,45,16.50
2019,03,28,15,46,16.50
2019,03,28,15,47,16.60
2019,03,28,15,48,16.70
2019,03,28,15,49,16.70
2019,03,28,15,50,16.70
2019,03,28,15,51,16.80
2019,03,28,15,52,16.80
2019,03,28,15,53,16.80
2019,03,28,15,54,16.80
2019,03,28,15,55,16.90
2019,03,28,15,56,16.90
2019,03,28,15,57,16.90
2019,03,28,15,58,16.90
2019,03,28,15,59,16.90
2019,03,28,16,00,16.90
2019,03,28,16,01,16.90
2019,03,28,16,02,17.00
2019,03,28,16,03,17.10
2019,03,28,16,04,17.10
2019,03,28,16,05,17.10
2019,03,28,16,06,17.10
2019,03,28,16,07,17.10
2019,03,28,16,08,17.10
2019,03,28,16,09,17.00
2019,03,28,16,10,17.00
2019,03,28,16,11,17.00
2019,03,28,16,12,17.00
2019,03,28,16,13,17.00
2019,03,28,16,14,17.00
2019,03,28,16,15,17.10
2019,03,28,16,16,17.10
2019,03,28,16,17,17.20
2019,03,28,16,18,17.20
2019,03,28,16,19,17.20
2019,03,28,16,20,17.20
2019,03,28,16,21,17.20
2019,03,28,16,22,17.20
2019,03,28,16,23,17.20
2019,03,28,16,24,17.20
2019,03,28,16,25,17.20
2019,03,28,16,26,17.30
2019,03,28,16,27,17.30
2019,03,28,16,28,17.30
2019,03,28,16,29,17.30
2019,03,28,16,30,17.30
2019,03,28,16,31,17.30
2019,03,28,16,32,17.30
2019,03,28,16,33,17.20
2019,03,28,16,34,17.10
2019,03,28,16,35,17.00
2019,03,28,16,36,16.90
2019,03,28,16,37,16.90
2019,03,28,16,38,16.80
2019,03,28,16,39,16.70
2019,03,28,16,40,16.60
2019,03,28,16,41,16.60
2019,03,28,16,42,16.60
2019,03,28,16,43,16.60
2019,03,28,16,44,16.60
2019,03,28,16,45,16.60
2019,03,28,16,46,16.60
2019,03,28,16,47,16.60
2019,03,28,16,48,16.50
2019,03,28,16,49,16.50
2019,03,28,16,50,16.50
2019,03,28,16,51,16.40
2019,03,28,16,52,16.40
2019,03,28,16,53,16.40
2019,03,28,16,54,16.40
2019,03,28,16,55,16.50
2019,03,28,16,56,16.50
2019,03,28,16,57,16.60
2019,03,28,16,58,16.50
2019,03,28,16,59,16.50
2019,03,28,17,00,16.60
2019,03,28,17,01,16.60
2019,03,28,17,02,16.60
2019,03,28,17,03,16.70
2019,03,28,17,04,16.70
2019,03,28,17,05,16.70
2019,03,28,17,06,16.70
2019,03,28,17,07,16.80
2019,03,28,17,08,16.80
2019,03,28,17,09,16.80
2019,03,28,17,10,16.80
2019,03,28,17,11,16.80
2019,03,28,17,12,16.80
2019,03,28,17,13,16.80
2019,03,28,17,14,16.80
2019,03,28,17,15,16.80
2019,03,28,17,16,16.80
2019,03,28,17,17,16.80
2019,03,28,17,18,16.80
2019,03,28,17,19,16.80
2019,03,28,17,20,16.80
2019,03,28,17,21,16.80
2019,03,28,17,22,16.80
2019,03,28,17,23,16.80
2019,03,28,17,24,16.80
2019,03,28,17,25,16.80
2019,03,28,17,26,16.80
2019,03,28,17,27,16.80
2019,03,28,17,28,16.80
2019,03,28,17,29,16.80
2019,03,28,17,30,16.80
2019,03,28,17,31,16.90
2019,03,28,17,32,16.90
2019,03,28,17,33,16.90
2019,03,28,17,34,17.00
2019,03,28,17,35,17.00
2019,03,28,17,36,17.00
2019,03,28,17,37,17.10
2019,03,28,17,38,17.10
2019,03,28,17,39,17.20
2019,03,28,17,40,17.20
2019,03,28,17,41,17.20
2019,03,28,17,42,17.20
2019,03,28,17,43,17.10
2019,03,28,17,44,17.10